750  
ASUS43 KGRB 270011  
RWRGRB  
 
NORTH-CENTRAL AND NORTHEAST WISCONSIN REGIONAL WEATHER ROUNDUP  
NATIONAL WEATHER SERVICE GREEN BAY WI  
700 PM CDT SUN MAR 26 2017  
 
WIZ005-009-010>012-018-019-270100-  
NORTH CENTRAL WISCONSIN  
 
CITY SKY/WX TMP DP RH WIND PRES REMARKS
 
IRONWOOD CLOUDY 33 31 92 N5 29.92R  
MANITOWISH WTR DRIZZLE 35 35 100 N5 29.89R  
ARBOR VITAE DRIZZLE 39 38 94 N5 29.87S  
EAGLE RIVER LGT RAIN 37 37 100 N5 29.87R  
LAND O LAKES DRIZZLE 37 36 99 N3 29.89S  
RHINELANDER LGT RAIN 39 38 96 CALM 29.87S FOG  
PHILLIPS DRIZZLE 38 37 97 N6 29.87S  
ANTIGO DRIZZLE 36 36 100 CALM 29.86S  
TOMAHAWK DRIZZLE 38 37 96 CALM 29.88R  
MERRILL RAIN 39 39 100 CALM 29.88R  

 
 
WIZ013-073-270100-  
NORTHEAST WISCONSIN  
 
CITY SKY/WX TMP DP RH WIND PRES REMARKS
 
IRON MOUNTAIN LGT RAIN 36 34 92 NW5 29.86F  
MARINETTE N/A N/A N/A N/A MISG N/A  
OCONTO CLOUDY 37 36 97 N5 29.87R  

 
 
WIZ017-030-035>037-045-270100-  
CENTRAL WISCONSIN  
 
CITY SKY/WX TMP DP RH WIND PRES REMARKS
 
MEDFORD RAIN 39 38 99 N3 29.86S  
WAUSAU LGT RAIN 39 38 96 CALM 29.86R FOG  
MOSINEE RAIN 37 37 100 VRB3 29.88R  
MARSHFIELD LGT RAIN 39 37 92 N3 29.86R FOG  
WISC RAPIDS LGT RAIN 39 39 100 N3 29.88R FOG  
STEVENS POINT RAIN 37 37 100 CALM 29.88R  
WAUPACA DRIZZLE 40 39 95 N5 29.87R  
SHAWANO DRIZZLE 39 37 93 N3 29.87S  
CLINTONVILLE RAIN 37 36 93 N5 29.87R  
WAUTOMA LGT RAIN 39 38 96 N3 29.88R  

 
 
WIZ038-039-048-051-270100-  
FOX VALLEY  
 
CITY SKY/WX TMP DP RH WIND PRES REMARKS
 
NWS GREEN BAY CLOUDY 38 38 100 NE6 29.87R FOG  
APPLETON DRIZZLE 39 39 100 N6 29.84R  
OSHKOSH LGT RAIN 40 38 93 N7 29.85R FOG  
FOND DU LAC RAIN 41 38 89 N5 29.85R FOG  

 
 
WIZ022-050-052-270100-  
EAST CENTRAL WISCONSIN  
 
CITY SKY/WX TMP DP RH WIND PRES REMARKS
 
EPHRAIM FOG 33 33 100 N6 29.85S VSB<1/4  
WASHINGTON ISL FOG 33 33 99 NE6 29.87S VSB 3/4  
STURGEON BAY CLOUDY 35 35 100 N8 29.86S  
MANITOWOC LGT RAIN 40 39 97 N3 29.86R VSB 1  
SHEBOYGAN LGT RAIN 41 39 93 NE3 29.85R FOG  

 
 
LMZ563-521-522-541>543-270100-  
LAKESHORE  
 
STATION/POSITION TIME TEMP WIND PRES VSBY WAVE
 
AIR SEA DIR/SP/G HT/PER  
(UTC) (F) (DEG/KT/KT) (MB) (MI) (FT/S)  
SHEBOYGAN LKSHOR 0000 37 350/ 8/ 9 1011.1R  
KEWAUNEE LKSHORE 2348 37 30/ 3/ 5 1010.5R  
NORTHPORT PIER 2340 34 CALM / 3 1011.5S  
CHAMBERS ISLAND 2340 33 360/ 9/ 10 1011.2S  
MENOMINEE LKSHOR 2348 34 360/ 11/ 13 1010.8R  

 
 
 
CLICK HERE TO GO TO PREVIOUS BULLETINS.

The Nexlab WI Page Main Text Page